User: anonymous   Login
Location: Unspecified
(0.0000°N, 0.0000°E)
Time: 18:43:06
(UTC+00:00)
Language:

USA 169 - Orbit

View from above orbital plane
View from above orbital plane
View from above satellite
View from above satellite

Ground track
Ground track

The orbit data is extracted from the following two-line orbital elements,

1 27711U 03012A   21137.43829896 -.00000188  00000-0  00000+0 0  9994
2 27711   9.5425  42.7285 0002340  12.6559 129.8629  1.00270264 13025
Epoch (UTC): 17 May 2021 10:31:09
Eccentricity: 0.0002340
inclination: 9.5425°
perigee height: 35777 km
apogee height: 35796 km
right ascension of ascending node: 42.7285°
argument of perigee: 12.6559°
revolutions per day: 1.00270264
mean anomaly at epoch: 129.8629°
orbit number at epoch: 1302

The dashed part of the orbit path shows where the satellite is in the earth's shadow,  

DLR